Wind_Speed
4 7 11 14 20 24 25 30 34 38 35 22 10 8 22 23 26 34 34 27 27 29 27 26 30 29 24 23 22 17 15 14 18 22 28 27 23 18 16 18 19 20 21 23 22 25 29 32 36
4 5 10 12 15 22 27 29 36 41 40 32 20 7 9 21 21 29 35 39 35 29 29 30 27 27 28 29 23 20 18 17 18 18 20 17 14 17 20 19 21 21 23 21 27 28 29 33 36
3 5 10 11 16 19 22 30 35 39 41 42 23 11 4 11 22 22 29 36 41 38 32 31 30 27 27 27 23 20 15 15 14 14 15 16 19 20 19 20 25 26 23 27 28 29 34 40 40
6 9 9 12 14 18 22 28 35 38 43 45 25 13 6 5 18 24 22 25 33 39 40 38 36 32 30 26 22 16 9 6 6 13 21 23 21 20 22 24 23 25 24 28 33 33 36 41 39
8 9 3 6 13 18 23 28 33 37 44 45 24 15 8 7 10 21 25 23 22 21 23 26 29 36 36 25 20 19 16 12 8 14 18 20 19 21 23 26 26 28 29 33 35 33 38 33 25
12 3 2 6 12 17 22 27 33 38 43 42 25 15 6 5 8 12 22 25 21 20 16 16 18 19 33 37 24 23 14 12 19 29 21 17 23 26 26 30 32 33 37 37 34 35 27 24 20
16 8 4 5 9 15 21 27 32 38 43 38 24 15 11 7 7 11 17 22 20 17 17 18 16 14 20 28 28 25 22 19 26 24 22 23 24 28 32 36 39 40 37 35 32 25 21 15 12
12 10 5 5 6 14 22 26 32 37 41 37 24 21 17 8 3 7 13 20 22 16 18 17 16 14 28 27 17 27 25 28 29 23 24 25 29 30 33 37 39 38 40 34 26 20 18 9 5
16 16 14 12 8 12 19 25 28 35 37 33 27 24 18 8 2 8 10 18 20 18 20 25 22 25 25 28 27 24 36 38 33 32 33 35 34 35 37 37 34 34 31 25 21 16 10 0 6
17 13 8 5 7 11 14 23 27 32 33 34 31 27 23 12 5 10 13 20 19 21 25 29 18 15 22 30 36 31 30 37 41 42 43 37 36 37 38 37 31 29 27 20 13 7 7 15 20
21 15 12 4 7 11 12 19 27 28 26 31 32 31 29 23 11 13 16 20 27 27 28 31 30 24 20 24 29 35 34 34 35 35 30 29 31 33 34 30 26 14 8 8 6 18 25 30 33
17 18 15 6 8 10 12 15 20 22 21 26 30 29 29 27 21 14 15 14 22 27 23 22 22 24 23 21 22 25 30 26 25 28 26 28 30 28 25 14 5 11 15 21 30 35 38 41 41
18 21 18 13 10 14 9 11 16 19 18 21 25 27 27 26 23 16 14 14 16 22 21 22 18 18 21 23 20 21 21 22 26 24 23 25 20 18 8 13 16 22 32 37 42 46 45 39 39
21 23 20 11 12 16 12 6 16 17 19 17 20 25 24 22 19 14 11 11 14 19 16 12 13 16 18 18 16 18 20 18 15 17 17 11 9 4 12 21 30 39 42 51 49 43 40 41 39
31 24 24 22 26 14 12 11 13 12 16 16 19 22 23 19 16 12 8 1 6 14 15 15 15 16 14 8 9 11 9 11 10 9 12 11 11 15 23 37 41 47 51 47 44 45 46 37 35
33 21 24 22 20 17 9 16 11 3 14 19 15 20 19 17 14 11 9 3 11 14 16 16 18 16 14 8 9 9 7 8 9 14 16 15 24 37 41 42 44 49 42 45 45 37 33 33 35
33 26 28 30 27 20 17 17 9 8 12 15 12 17 19 17 15 13 10 5 3 13 22 23 17 17 14 7 13 12 8 11 18 22 24 31 37 40 41 47 51 44 42 36 32 35 33 30 30
37 32 31 29 29 25 19 14 11 12 10 11 11 13 21 21 17 17 13 5 5 7 20 27 24 17 14 17 15 14 16 18 26 32 36 40 40 44 49 52 46 41 32 31 31 32 30 30 27
36 37 34 34 30 26 22 19 15 12 13 8 11 15 21 23 21 20 14 10 6 7 21 31 26 21 17 26 23 21 20 32 39 42 44 44 46 50 51 40 38 35 35 36 37 32 32 30 27
32 40 40 37 35 30 25 22 21 16 14 9 12 13 17 24 23 21 17 14 6 6 24 33 32 27 27 27 26 21 33 45 47 46 47 46 46 46 40 37 35 35 33 32 33 32 30 24 26
32 38 44 42 39 34 31 28 27 20 17 11 9 12 16 22 21 19 17 15 10 9 31 39 40 33 38 32 31 33 44 43 44 44 43 43 40 35 32 32 31 29 27 26 26 27 25 27 27
32 35 43 48 46 42 39 34 27 22 19 15 11 12 17 20 19 14 13 12 6 19 37 46 43 43 38 34 36 41 43 43 40 36 34 35 34 31 30 29 25 24 23 22 24 24 23 25 24
35 35 38 47 49 43 39 37 30 26 20 20 14 11 12 11 15 12 9 5 6 24 41 47 46 44 39 38 41 43 38 35 32 28 29 27 28 28 29 25 18 17 22 23 21 20 22 27 20
36 36 37 41 49 50 46 42 35 32 25 24 19 14 10 8 10 9 5 5 20 36 49 53 46 39 39 40 41 39 37 29 22 19 14 14 24 23 23 24 11 15 20 20 19 22 23 25 25
35 37 37 38 43 54 53 45 40 36 33 29 24 13 9 8 7 4 8 12 29 39 45 50 42 41 38 38 39 38 35 31 15 13 14 11 16 18 13 9 9 19 19 21 25 25 26 23 22
35 37 38 38 41 45 55 51 46 41 36 34 27 17 11 10 11 2 7 14 23 41 46 40 37 37 36 37 41 34 26 22 16 16 11 10 11 10 10 9 16 21 22 25 30 27 25 20 19
33 36 36 37 38 42 45 52 49 47 42 40 35 27 16 14 14 8 5 12 21 41 43 41 36 33 38 37 33 33 24 21 22 18 9 8 13 10 10 12 18 23 26 28 29 27 23 22 19
34 34 35 37 38 39 43 46 54 53 51 45 40 33 26 23 19 17 12 13 25 35 45 39 36 34 36 33 32 25 25 22 16 16 18 12 8 9 12 14 25 25 25 30 29 27 24 22 20
33 34 35 36 36 37 39 42 47 60 58 54 46 42 35 29 26 22 18 18 22 33 38 37 35 36 34 30 26 24 22 16 12 21 20 21 17 15 16 21 23 26 29 29 28 27 27 20 19
33 34 36 35 36 37 38 40 43 51 59 54 52 50 46 37 32 32 26 24 27 26 35 40 37 36 32 31 28 26 22 18 14 23 19 19 18 17 23 23 26 30 27 26 25 24 21 19 16
Wind_Direction
317 355 20 10 11 20 16 16 13 13 14 9 358 288 222 211 217 216 220 230 226 223 224 223 218 218 204 198 205 223 230 232 257 261 264 270 275 266 262 258 274 295 304 304 307 313 314 319 318
321 346 351 360 360 9 14 7 8 5 10 3 1 340 256 222 211 216 216 214 214 231 224 226 220 217 216 204 218 232 247 240 259 259 258 265 252 265 255 269 286 291 300 302 308 312 315 322 318
306 313 324 341 352 353 4 4 6 359 6 5 352 347 296 233 223 214 216 218 216 215 220 220 218 227 224 225 235 232 242 222 245 264 259 271 263 270 274 271 289 293 296 307 305 310 317 317 314
280 311 314 342 333 345 355 354 1 356 358 359 350 350 308 270 224 215 208 216 221 223 226 224 224 224 236 235 209 203 199 203 237 259 264 271 262 272 270 285 289 298 304 309 306 301 310 310 312
284 302 326 332 316 345 350 346 358 350 351 356 358 352 313 270 238 217 210 208 206 208 214 220 222 221 208 201 211 191 185 150 185 239 247 253 250 254 272 284 289 293 300 306 307 306 307 309 309
262 222 156 306 320 344 351 350 356 348 353 358 359 2 358 300 250 217 211 210 208 203 208 192 187 198 211 212 222 201 198 179 222 248 253 251 256 259 273 277 286 295 292 296 302 305 305 306 311
247 248 142 293 339 342 352 356 357 351 353 1 4 16 12 341 288 221 197 210 206 193 187 181 184 191 187 189 186 191 175 205 216 230 251 255 278 282 285 287 290 292 294 295 297 296 302 310 310
237 242 227 281 358 344 358 359 358 352 353 7 16 17 9 7 347 177 177 194 198 179 181 179 150 188 180 188 181 196 191 200 207 237 253 265 282 283 286 290 290 291 293 291 293 296 308 302 299
248 247 262 275 354 335 8 4 354 350 358 16 26 24 15 8 60 159 166 175 186 174 165 170 160 200 195 183 193 198 211 216 236 243 259 268 276 285 295 300 294 289 285 283 286 291 291 244 94
240 249 260 241 328 343 6 2 347 355 2 13 29 29 31 51 98 147 149 164 165 153 157 161 162 191 191 192 192 208 220 230 233 244 254 270 278 289 292 290 284 277 270 267 267 278 120 102 103
234 247 245 213 305 347 352 350 339 358 4 16 26 34 42 56 94 133 153 160 158 172 161 168 172 194 189 197 209 219 225 224 236 244 266 269 282 288 289 290 284 264 212 205 146 117 109 109 100
216 233 228 236 283 312 321 336 344 356 2 18 20 30 45 52 65 114 137 158 172 173 169 181 187 205 217 216 226 229 228 242 257 263 270 278 282 286 294 289 137 143 144 128 116 114 112 101 91
214 215 222 217 233 275 294 339 357 354 356 6 11 21 31 45 52 83 97 118 140 175 183 192 202 202 205 214 228 221 233 253 260 267 265 265 273 285 313 118 126 126 117 117 118 112 103 101 105
210 199 205 213 258 270 283 2 355 348 358 8 10 8 17 28 42 56 72 127 151 172 177 181 180 185 195 215 228 239 250 245 243 254 260 232 226 141 119 118 116 113 120 117 111 113 112 107 99
205 214 216 197 218 241 285 308 316 338 359 356 2 360 0 4 12 34 62 10 149 166 175 180 181 183 180 197 219 210 221 232 201 148 143 153 152 133 126 118 120 124 121 110 114 113 113 105 104
212 213 208 217 229 236 242 272 287 333 346 355 4 359 5 355 346 6 21 57 203 205 188 181 167 175 183 202 203 183 177 201 168 160 153 149 131 124 124 127 129 125 119 115 107 105 102 106 98
215 209 208 213 207 226 230 245 287 343 322 342 345 360 8 9 353 358 355 319 190 202 201 195 181 173 172 161 147 147 163 134 147 145 137 133 131 130 129 132 130 119 114 108 99 105 108 112 98
214 207 210 212 220 218 223 241 247 274 303 330 346 356 6 5 349 351 352 313 251 209 198 198 193 170 156 141 135 127 122 131 134 131 132 134 134 132 130 137 131 117 104 100 98 104 106 113 95
218 214 211 213 220 228 232 241 257 259 268 300 328 340 360 353 351 352 351 334 296 198 187 188 188 172 158 147 128 113 121 127 128 129 125 125 127 126 129 128 122 117 106 104 102 99 115 111 100
220 218 207 208 215 218 226 237 252 264 258 276 308 332 351 355 351 357 345 343 319 212 179 172 179 162 156 140 125 134 136 132 127 119 114 115 122 122 119 119 118 117 116 114 113 101 110 116 105
223 218 212 212 214 215 222 224 246 252 254 258 282 317 350 352 353 357 350 351 338 181 165 162 170 157 154 142 143 142 134 131 122 116 116 120 122 118 115 118 115 115 119 122 124 109 106 108 105
227 222 217 215 221 224 228 233 227 242 246 253 268 306 339 344 343 2 2 4 16 158 158 154 157 150 153 149 152 147 138 132 129 125 121 120 118 121 122 119 120 120 121 131 129 117 113 113 110
228 226 221 219 221 218 226 225 224 233 237 242 247 279 320 344 332 10 28 24 101 152 149 146 148 149 147 156 157 158 144 145 135 128 123 121 129 133 132 126 117 133 141 135 133 127 120 124 108
232 229 225 221 221 220 222 224 225 234 238 240 247 254 282 316 308 28 65 141 137 141 142 144 148 155 151 156 162 158 160 156 135 142 137 130 134 133 133 139 121 153 160 150 139 137 134 126 117
231 230 229 225 224 220 222 224 229 231 238 230 238 247 251 284 273 71 119 164 148 146 147 148 152 153 151 157 162 160 156 161 149 168 156 149 151 145 163 152 135 152 160 154 145 147 144 129 123
232 229 230 228 223 222 226 226 226 227 231 224 222 233 237 251 252 204 125 174 154 142 146 153 157 152 158 163 171 170 174 180 183 197 157 177 200 185 174 164 154 158 155 156 153 145 144 151 141
231 230 230 231 229 225 224 224 224 223 222 222 224 232 236 228 242 230 213 172 194 152 153 160 161 161 164 174 175 178 179 169 173 176 169 158 177 183 177 165 158 164 164 163 157 152 154 154 143
231 230 231 231 230 228 223 222 219 221 219 219 226 233 236 224 234 226 224 179 196 169 162 169 170 169 177 173 179 185 173 174 184 218 207 191 189 197 181 175 164 158 161 163 160 160 164 158 159
231 231 231 231 231 231 230 224 222 221 225 225 228 230 238 228 225 232 218 191 197 183 177 178 179 179 184 185 188 182 189 213 233 181 184 206 207 183 170 164 162 155 154 155 157 160 165 166 169
228 229 229 230 230 232 231 227 224 223 227 231 231 234 238 229 219 226 219 209 189 196 190 185 185 187 193 199 196 197 200 216 215 181 184 181 175 176 168 166 160 154 153 153 158 164 168 165 164
Height
10956 10956 10954 10953 10951 10947 10943 10941 10936 10933 10928 10924 10921 10919 10920 10921 10923 10927 10930 10933 10936 10940 10943 10948 10952 10957 10960 10962 10965 10967 10969 10972 10974 10973 10974 10974 10976 10976 10976 10976 10976 10975 10973 10971 10969 10967 10964 10960 10957
10955 10956 10954 10953 10951 10947 10943 10939 10934 10931 10927 10922 10919 10917 10917 10918 10919 10923 10926 10929 10932 10935 10940 10944 10949 10953 10957 10959 10962 10965 10969 10972 10972 10973 10973 10973 10974 10974 10974 10973 10972 10972 10970 10968 10966 10963 10960 10957 10954
10955 10956 10954 10952 10950 10946 10942 10940 10934 10931 10926 10921 10916 10913 10913 10913 10916 10917 10920 10923 10928 10932 10936 10941 10945 10949 10953 10956 10960 10964 10966 10969 10972 10971 10971 10973 10971 10970 10970 10969 10969 10968 10967 10965 10962 10959 10956 10952 10950
10955 10955 10953 10952 10948 10946 10942 10939 10934 10930 10924 10919 10914 10910 10909 10909 10910 10913 10916 10920 10924 10928 10932 10936 10941 10946 10949 10953 10958 10962 10964 10967 10970 10970 10969 10968 10969 10967 10966 10966 10966 10965 10963 10962 10959 10956 10953 10950 10948
10954 10953 10952 10950 10947 10946 10942 10939 10933 10929 10924 10918 10911 10908 10906 10905 10906 10909 10914 10917 10921 10925 10928 10930 10934 10938 10943 10950 10956 10960 10963 10965 10967 10968 10966 10967 10965 10963 10963 10963 10961 10959 10959 10958 10955 10953 10951 10947 10944
10952 10952 10951 10949 10947 10946 10942 10938 10933 10928 10922 10916 10910 10906 10904 10902 10903 10905 10909 10914 10918 10922 10924 10928 10931 10934 10940 10947 10954 10957 10961 10964 10967 10965 10963 10962 10961 10961 10960 10959 10957 10955 10955 10954 10952 10950 10947 10943 10940
10949 10951 10949 10949 10947 10945 10942 10937 10933 10928 10923 10917 10909 10906 10903 10900 10900 10902 10905 10910 10915 10919 10923 10927 10931 10935 10939 10946 10953 10955 10959 10962 10964 10960 10959 10957 10956 10955 10955 10954 10953 10952 10951 10949 10948 10946 10943 10940 10937
10946 10949 10948 10948 10947 10944 10941 10939 10934 10929 10923 10915 10909 10905 10901 10900 10899 10900 10903 10907 10913 10918 10923 10928 10932 10936 10941 10947 10951 10954 10957 10958 10958 10955 10953 10953 10952 10952 10952 10951 10948 10946 10945 10945 10945 10942 10940 10938 10937
10943 10946 10947 10947 10945 10944 10942 10939 10935 10931 10924 10917 10912 10906 10901 10898 10898 10899 10903 10907 10912 10918 10923 10927 10932 10936 10940 10946 10950 10953 10953 10951 10948 10949 10950 10949 10949 10949 10947 10944 10942 10941 10941 10942 10942 10940 10939 10938 10939
10940 10942 10944 10945 10944 10942 10942 10940 10936 10931 10926 10920 10914 10909 10902 10899 10899 10901 10904 10909 10914 10918 10922 10926 10932 10935 10939 10944 10946 10948 10950 10950 10950 10951 10948 10948 10947 10945 10941 10939 10937 10935 10935 10937 10938 10939 10940 10941 10941
10938 10940 10940 10943 10942 10941 10942 10941 10937 10932 10929 10925 10919 10913 10908 10904 10904 10905 10908 10911 10915 10920 10925 10929 10932 10936 10939 10942 10943 10944 10945 10947 10949 10949 10948 10945 10943 10940 10937 10933 10929 10927 10931 10934 10938 10941 10943 10944 10943
10935 10937 10937 10940 10941 10941 10942 10941 10937 10935 10931 10927 10924 10920 10914 10911 10910 10911 10913 10915 10917 10922 10925 10930 10933 10936 10938 10940 10941 10942 10944 10945 10947 10944 10942 10941 10939 10938 10934 10928 10926 10928 10933 10937 10941 10943 10946 10948 10946
10932 10934 10934 10937 10939 10939 10941 10940 10939 10936 10933 10930 10927 10923 10918 10916 10917 10918 10917 10918 10919 10923 10927 10929 10932 10935 10936 10938 10939 10941 10942 10942 10941 10939 10938 10938 10938 10937 10932 10929 10930 10934 10938 10941 10944 10948 10949 10949 10948
10929 10931 10932 10935 10937 10938 10938 10940 10939 10937 10934 10932 10929 10925 10922 10919 10920 10921 10921 10921 10921 10924 10927 10928 10929 10931 10933 10935 10937 10938 10938 10937 10936 10934 10934 10935 10936 10936 10936 10936 10939 10941 10943 10947 10948 10950 10952 10953 10954
10927 10928 10931 10934 10934 10937 10936 10938 10939 10937 10934 10933 10930 10928 10925 10923 10920 10920 10920 10921 10920 10922 10925 10927 10928 10930 10932 10934 10935 10935 10934 10933 10932 10932 10934 10935 10936 10937 10939 10941 10944 10946 10950 10950 10952 10954 10956 10958 10959
10922 10924 10928 10930 10932 10934 10936 10935 10938 10938 10935 10933 10931 10928 10925 10923 10921 10918 10918 10918 10919 10920 10923 10926 10928 10930 10932 10933 10933 10932 10933 10932 10930 10932 10934 10936 10938 10939 10942 10945 10947 10951 10953 10955 10959 10960 10962 10962 10962
10915 10919 10923 10926 10929 10931 10933 10933 10934 10937 10937 10933 10932 10931 10927 10925 10922 10918 10916 10915 10915 10916 10919 10924 10928 10930 10933 10933 10933 10933 10933 10932 10931 10932 10935 10939 10942 10943 10947 10950 10953 10955 10958 10960 10962 10964 10964 10967 10967
10909 10914 10917 10921 10925 10928 10929 10931 10934 10937 10938 10935 10933 10931 10929 10925 10923 10919 10916 10913 10912 10912 10914 10919 10927 10931 10934 10933 10934 10934 10934 10935 10935 10936 10939 10942 10945 10947 10951 10956 10959 10960 10962 10964 10966 10968 10969 10971 10971
10903 10908 10912 10917 10921 10925 10928 10929 10931 10935 10937 10935 10933 10931 10928 10925 10922 10918 10914 10910 10908 10908 10909 10916 10925 10931 10935 10935 10937 10938 10939 10940 10941 10943 10945 10947 10951 10954 10959 10963 10965 10965 10967 10970 10972 10973 10974 10976 10976
10897 10902 10907 10911 10915 10920 10924 10926 10928 10931 10933 10934 10931 10932 10928 10925 10921 10917 10911 10907 10905 10906 10906 10913 10924 10931 10935 10937 10940 10942 10945 10947 10948 10949 10951 10955 10959 10963 10966 10968 10970 10971 10972 10974 10977 10978 10979 10980 10980
10889 10895 10901 10906 10910 10914 10919 10923 10926 10928 10929 10933 10931 10929 10928 10923 10921 10917 10911 10906 10902 10901 10905 10910 10922 10931 10936 10940 10943 10946 10951 10954 10955 10957 10959 10962 10966 10969 10971 10972 10974 10976 10977 10979 10981 10982 10983 10984 10985
10883 10888 10894 10900 10904 10909 10913 10918 10922 10925 10927 10929 10930 10929 10927 10925 10923 10920 10914 10908 10904 10903 10906 10910 10923 10931 10937 10942 10947 10951 10955 10956 10959 10961 10964 10966 10969 10972 10974 10976 10978 10980 10982 10983 10985 10987 10987 10988 10989
10875 10880 10886 10891 10895 10902 10906 10911 10917 10921 10924 10927 10929 10928 10928 10926 10925 10923 10917 10912 10909 10910 10911 10916 10926 10933 10939 10944 10949 10954 10958 10961 10963 10965 10967 10970 10972 10974 10976 10978 10982 10984 10985 10987 10988 10991 10992 10993 10993
10867 10872 10878 10883 10888 10896 10901 10906 10912 10917 10921 10924 10925 10927 10927 10926 10927 10925 10923 10919 10917 10918 10919 10923 10930 10935 10941 10947 10952 10955 10960 10964 10967 10968 10971 10974 10975 10976 10978 10980 10983 10984 10986 10988 10991 10992 10995 10996 10996
10859 10864 10869 10875 10881 10888 10893 10899 10904 10911 10915 10919 10922 10925 10927 10927 10928 10927 10926 10925 10924 10924 10927 10931 10935 10940 10945 10949 10954 10957 10961 10966 10968 10970 10973 10974 10977 10979 10980 10981 10982 10984 10986 10988 10991 10994 10996 10998 10999
10852 10856 10861 10866 10872 10879 10884 10891 10898 10904 10909 10913 10917 10921 10925 10925 10928 10928 10927 10930 10930 10928 10931 10936 10940 10943 10948 10952 10955 10959 10963 10965 10968 10970 10973 10975 10977 10979 10979 10981 10982 10983 10985 10988 10991 10995 10997 11000 11001
10844 10848 10853 10858 10863 10870 10877 10883 10891 10897 10902 10906 10911 10916 10921 10924 10927 10928 10929 10929 10932 10932 10933 10938 10942 10947 10951 10953 10957 10960 10963 10966 10969 10970 10971 10974 10976 10978 10978 10980 10983 10984 10986 10989 10992 10994 10998 11001 11003
10837 10841 10846 10850 10855 10860 10867 10873 10882 10887 10893 10898 10903 10909 10917 10921 10924 10926 10928 10929 10931 10932 10933 10937 10942 10946 10950 10954 10956 10960 10963 10965 10968 10970 10972 10973 10975 10977 10978 10980 10983 10984 10987 10990 10993 10995 10998 11001 11004
10829 10834 10837 10842 10848 10852 10858 10865 10871 10877 10883 10890 10897 10903 10911 10918 10920 10922 10925 10928 10930 10931 10933 10936 10940 10944 10948 10952 10954 10957 10961 10963 10965 10968 10970 10972 10974 10976 10977 10980 10983 10986 10988 10991 10995 10998 11001 11002 11004
10821 10825 10830 10835 10840 10844 10848 10854 10860 10866 10874 10881 10889 10894 10902 10911 10915 10918 10921 10925 10928 10932 10934 10935 10938 10943 10948 10951 10953 10955 10958 10960 10963 10966 10969 10972 10973 10975 10978 10981 10986 10989 10992 10993 10996 11000 11002 11003 11005